Location: *
(51.1248°S, 108.4023°W)
Time: 05:14:55
(UTC+00:00)

USA 238 - Pass Details

Date: 15 June 2021
Orbit: 989 x 1223 km, 63.4° (Epoch: 16 July)

Event Time Altitude Azimuth Distance (km) Brightness Sun altitude
Rises 23:39:37 0° 225° (SW) 3,961 6.9 -4.4°
Reaches altitude 10° 23:42:23 10° 226° (SW) 2,964 6.2 -4.8°
Maximum altitude 23:49:20 72° 309° (NW) 1,106 4.1 -5.7°
Drops below altitude 10° 23:55:53 10° 31° (NNE) 2,797 5.9 -6.6°
Sets 23:58:25 0° 33° (NNE) 3,723 6.5 -7.0°
